Torna al catalogo

ARIANE 1 DEB

AttivoUNKNOWN
NORAD 25767·DEBRIS·🇫🇷 France

Lanciato Dec 24, 1979 da Guiana Space Centre

Loading…

Prossimi Passaggi (prossime 24 ore)

TLE

AggiornatoSource: Space-Track

Epoca: Sep 14, 2026, 00:49 UTC

1 25767U 79104J   26257.03453131  .00065736  00000-0  39526-2 0  9994
2 25767  17.8088 171.8005 2325747 353.3219   4.0670 10.66319465392720

Traccia ARIANE 1 DEB in tempo reale con AllMySat

Download on the App Store